Lid_Strength_Index
4 4 4 3 4 4 4 4 4 4 4 4 4 4 4 4 4 4 4 3 3 3 3 3 3 3 6 10 10 7 1 4 7 2 6 8 10 11 13 12 10 10 7 6 6 6 6
4 4 4 4 4 4 4 4 4 3 3 3 3 3 3 3 4 4 3 4 4 4 4 4 3 4 8 13 7 6 6 6 7 8 5 7 9 9 11 12 12 10 10 8 7 7 7
4 4 4 4 4 4 3 3 3 3 3 3 3 3 3 3 3 3 3 3 3 3 4 4 3 5 8 10 6 7 7 9 7 7 8 6 6 7 10 12 10 10 12 10 9 8 8
3 4 4 4 3 3 3 3 3 4 4 4 4 3 3 3 3 3 3 3 3 3 2 3 3 5 11 6 6 6 6 7 6 7 7 7 7 9 9 8 9 10 11 12 9 8 8
4 4 4 4 3 3 3 4 4 4 4 4 4 3 3 3 3 3 3 3 3 2 2 2 5 7 11 4 7 6 6 8 7 7 8 6 9 10 10 12 13 12 13 12 11 7 8
4 4 4 4 4 4 4 4 4 4 4 4 3 3 3 3 3 3 3 3 3 3 4 4 4 8 7 8 5 5 5 6 8 8 9 10 12 13 14 14 16 14 13 11 12 9 7
4 4 4 4 4 4 4 4 4 4 4 4 4 4 4 3 3 3 5 7 10 11 9 11 10 9 8 6 6 7 5 7 7 10 14 12 15 16 14 12 12 11 12 12 10 8 9
4 4 4 4 4 4 4 4 4 4 4 4 4 4 4 3 3 3 6 9 9 9 12 6 7 7 6 6 10 8 7 10 11 14 12 14 16 13 11 11 12 12 13 13 11 9 9
4 4 4 4 4 4 4 3 4 4 4 4 4 4 3 3 3 5 7 7 4 4 9 6 4 4 4 5 8 8 6 9 11 13 13 15 13 10 12 12 12 12 13 13 12 10 10
4 4 4 4 3 3 3 4 4 4 4 4 4 3 3 3 5 5 5 3 3 4 12 9 7 5 4 5 7 4 5 7 10 13 12 14 12 12 12 13 12 14 11 11 11 12 16
4 4 4 3 3 3 3 4 4 4 4 4 4 3 2 2 6 6 3 3 3 5 19 7 6 2 4 6 6 5 2 5 9 10 11 14 13 13 13 12 10 13 10 10 11 13 13
4 4 4 3 4 4 3 3 4 4 4 4 3 2 2 4 5 4 2 3 4 13 19 10 6 7 7 6 6 5 5 4 5 8 10 11 9 11 12 11 11 11 11 11 11 13 17
5 5 4 4 3 3 3 4 4 4 4 3 3 2 3 3 6 3 4 6 14 17 8 10 9 8 8 8 8 7 8 9 12 15 13 9 9 8 8 12 11 13 16 18 19 18 18
5 5 4 3 3 3 3 3 3 4 4 3 3 3 3 2 4 3 5 11 19 11 11 8 9 8 10 9 9 9 9 11 8 10 12 14 15 9 7 10 14 14 15 18 21 20 17
5 5 4 4 3 3 3 3 3 4 4 4 3 6 5 3 3 4 9 16 14 11 9 10 10 11 11 9 9 9 10 11 9 9 14 14 14 8 7 8 10 13 16 14 16 14 17
5 5 4 3 3 3 3 3 3 3 4 4 7 7 5 2 3 6 11 12 11 7 7 8 13 11 13 11 11 11 11 9 10 8 8 11 15 9 9 8 9 11 10 16 16 19 21
5 5 4 3 3 3 3 3 3 3 4 5 9 8 4 3 4 8 15 12 9 6 6 9 11 12 11 12 11 12 12 9 8 9 8 10 13 12 10 11 13 13 13 14 14 16 18
5 5 5 4 3 3 3 3 3 4 4 7 10 11 4 4 11 14 13 9 6 7 6 8 8 9 11 11 12 12 12 10 7 8 11 10 13 16 13 9 8 10 12 13 17 18 16
5 5 5 5 4 3 3 3 3 3 4 7 11 10 4 5 14 14 10 8 7 8 8 8 9 8 8 11 13 11 10 7 7 8 10 10 14 18 15 12 10 11 11 12 12 14 16
4 4 4 4 4 4 4 3 3 3 4 6 11 12 9 9 10 12 12 10 10 7 8 7 8 8 10 11 10 12 11 8 7 8 6 8 12 15 18 14 12 14 12 11 13 16 16
5 4 4 4 4 4 4 3 3 3 4 8 11 13 10 13 11 11 10 9 11 11 8 7 9 9 11 13 12 12 10 9 8 6 8 10 15 13 13 12 12 12 13 12 13 13 16
5 5 4 4 4 4 4 4 3 3 3 8 12 11 9 9 10 11 10 11 11 10 9 10 11 9 9 12 11 13 11 11 11 9 10 10 14 13 14 12 12 14 12 11 11 11 12
5 5 4 4 4 4 4 4 4 2 4 10 10 9 8 8 10 12 12 10 9 8 8 7 8 9 10 9 7 7 7 7 8 10 11 12 13 14 17 13 13 16 13 12 11 10 11
5 5 4 4 4 4 4 4 4 3 3 7 9 8 10 12 10 11 9 8 9 9 10 8 7 9 7 5 5 6 8 8 8 8 8 11 12 13 16 15 21 13 10 10 11 9 10
5 5 5 5 5 4 4 4 4 3 3 7 9 8 9 12 9 9 9 9 8 7 8 8 7 6 5 7 11 12 13 12 10 9 9 8 11 15 17 18 14 13 11 12 13 13 10
5 5 5 5 5 5 4 4 4 3 3 6 8 8 8 10 11 7 10 9 10 10 9 7 5 5 7 10 12 16 17 15 15 12 9 10 10 13 15 19 21 14 10 9 9 16 9
5 5 5 5 5 5 4 4 4 4 3 4 6 7 7 10 8 7 9 9 7 8 10 8 8 9 8 12 16 15 16 12 16 16 15 14 14 16 16 17 15 11 10 9 17 15 9
5 5 5 5 5 5 5 4 4 4 3 4 7 6 7 10 10 7 6 8 8 8 10 8 9 9 10 12 14 14 14 13 14 13 14 15 16 16 15 17 19 11 11 13 10 8 8
6 6 5 6 6 6 6 5 4 4 3 3 6 5 5 8 8 6 4 4 4 5 7 6 8 8 8 11 13 11 13 12 13 16 10 15 13 14 14 14 10 11 9 7 8 9 9